Theta_e
313 314 323 328 336 339 342 343 339 340 337 326 324 327 328 328 334 328 326 331 333 328 320 319 323 324 315 316 318 319 318 319 319 321 323 325 325 327 327 327 327 325 326 328 330 330 330 328 330
312 321 326 337 342 344 342 340 341 336 333 330 322 322 322 325 324 328 335 331 332 329 323 322 321 324 316 317 319 320 319 320 321 323 325 328 329 332 332 332 332 331 331 331 332 332 332 331 329
316 324 335 340 345 344 341 338 337 334 331 330 323 322 323 326 327 329 333 333 332 330 325 327 322 324 318 319 320 321 320 322 324 326 332 334 333 333 332 333 333 332 332 332 332 331 333 333 333
324 331 333 339 341 341 338 337 335 334 331 325 323 326 324 323 326 328 330 334 333 330 329 329 323 324 320 320 320 322 321 323 325 327 332 335 336 337 337 336 335 333 333 333 332 332 333 335 334
329 334 334 341 340 338 335 335 333 333 330 329 323 327 326 323 323 325 330 334 333 331 328 331 324 323 321 320 321 323 323 324 324 325 333 336 338 338 337 336 335 334 333 333 332 333 331 332 334
333 331 337 335 335 334 333 332 331 331 328 327 324 325 327 323 325 326 329 332 332 331 328 332 325 324 321 321 322 325 324 324 324 327 332 335 335 335 336 334 334 333 333 332 332 331 331 331 331
332 334 331 333 332 332 331 330 331 329 329 328 324 326 327 325 324 325 326 330 330 332 329 332 332 325 322 323 324 327 325 324 325 327 327 328 328 328 333 333 333 332 333 332 332 331 332 331 332
331 331 330 331 329 329 331 329 327 329 330 324 324 327 329 326 323 325 331 333 332 332 334 332 334 338 337 337 326 328 325 325 326 327 327 326 326 326 325 325 326 329 330 330 331 331 331 330 330
325 330 328 326 328 327 329 330 327 326 329 328 327 327 327 324 323 329 332 332 333 333 334 335 336 338 338 339 338 330 327 326 326 328 328 328 330 330 330 329 326 327 328 328 329 330 329 330 330
331 331 328 326 327 328 328 329 329 329 330 330 329 327 324 324 324 328 331 331 332 332 333 333 333 337 339 338 333 336 334 333 334 333 333 332 332 331 329 327 325 326 327 328 328 329 330 331 330
330 332 329 328 327 328 328 329 329 329 329 329 330 330 330 327 325 326 329 329 329 330 332 332 331 332 335 335 330 327 326 327 328 327 331 332 331 331 330 329 328 327 326 328 328 329 328 328 329
330 330 330 329 328 327 328 328 329 330 330 329 329 329 329 328 327 326 326 328 329 328 330 330 330 331 333 328 325 324 325 323 324 325 327 331 331 331 330 329 328 327 325 326 326 325 325 326 327
330 329 329 330 330 329 329 329 329 328 328 328 329 329 328 327 328 326 325 326 327 326 327 328 329 333 329 324 324 325 323 325 326 326 326 326 329 330 329 328 327 326 326 326 326 326 325 326 326
326 326 327 328 328 328 328 327 326 326 326 325 326 327 327 327 327 326 325 325 324 323 324 325 329 330 325 324 325 324 324 326 326 328 328 327 328 329 328 328 327 327 327 326 326 325 325 325 327
321 323 323 322 324 323 321 320 320 321 322 324 325 325 326 327 326 326 326 325 324 323 322 322 325 324 324 325 325 325 325 327 327 328 328 327 328 328 328 328 328 327 326 326 326 327 326 326 327
318 318 320 320 319 319 319 320 320 321 322 323 324 325 326 326 327 326 326 325 325 322 320 320 324 324 325 326 325 326 326 327 328 329 329 328 328 328 328 329 329 329 327 327 326 326 326 326 326
319 321 320 319 317 318 320 320 320 320 321 322 323 324 324 326 327 326 325 325 323 322 320 323 325 326 326 325 326 326 327 329 329 329 330 328 328 328 328 329 329 327 327 327 327 327 326 326 326
320 319 319 318 318 317 318 320 320 320 322 323 324 325 326 326 327 327 325 323 323 321 320 323 328 326 326 326 326 328 329 329 330 331 331 328 329 328 328 328 328 327 327 327 325 327 326 326 326
321 320 321 319 317 318 320 322 322 322 322 323 324 325 326 327 328 322 322 323 324 326 327 327 328 326 327 328 330 332 331 331 331 331 329 329 329 328 328 328 328 327 327 327 327 326 326 326 327
315 316 317 317 317 319 321 322 322 322 321 323 324 325 326 327 327 325 322 324 325 326 328 329 329 326 327 329 331 331 331 330 330 329 329 328 327 328 328 328 327 327 327 326 325 326 326 327 327
315 316 317 317 321 321 321 322 321 322 323 322 324 326 327 328 328 327 325 325 326 327 328 329 329 326 329 329 328 328 327 328 329 329 329 328 327 328 328 327 327 327 326 326 325 326 327 327 328
318 316 316 317 319 322 321 325 323 321 321 324 327 328 327 325 328 327 326 326 326 327 328 329 328 329 331 329 330 331 331 331 330 329 329 328 327 328 327 327 328 326 326 325 325 326 327 327 327
317 318 318 318 320 322 321 321 322 323 321 322 323 328 327 327 328 327 326 326 326 327 328 329 330 332 332 330 330 331 330 329 329 329 329 328 328 328 329 327 327 326 326 326 326 327 327 327 327
317 318 321 321 321 323 322 320 323 321 321 322 324 327 327 328 327 326 325 326 327 327 328 329 331 333 331 331 330 329 329 329 329 330 331 329 329 329 329 329 328 327 326 326 325 327 327 327 326
318 319 322 322 323 325 321 322 322 322 323 325 326 327 328 329 327 326 327 328 327 327 329 330 332 332 332 331 330 328 328 328 330 329 330 327 329 331 330 329 329 328 327 326 326 327 328 328 327
318 320 321 325 325 322 321 320 320 323 323 324 325 327 328 329 327 326 327 327 327 328 329 330 331 332 331 330 329 328 327 328 329 329 329 330 330 331 329 330 329 328 327 326 327 327 328 328 328
317 319 318 319 322 321 322 324 325 326 326 327 326 326 329 330 328 327 327 326 327 328 330 330 330 331 331 330 329 329 328 329 328 328 329 330 329 330 330 330 329 328 327 326 327 327 328 326 326
317 318 317 318 319 320 324 326 323 327 328 328 329 329 330 329 328 326 326 326 327 328 330 329 330 330 330 330 330 330 330 330 327 329 330 330 330 330 330 330 328 329 327 327 328 328 328 327 327
314 317 317 317 319 318 318 321 329 328 330 330 331 331 330 330 328 327 327 326 327 329 328 329 329 329 330 330 330 331 331 330 328 330 330 330 330 330 330 330 329 329 328 328 328 328 328 329 329
315 316 318 317 320 318 320 320 323 328 327 329 331 330 329 329 328 327 327 326 326 328 328 329 329 329 330 330 330 331 330 328 329 330 330 331 330 330 330 330 330 328 328 327 327 328 327 327 327
Wind_Speed
12 14 10 3 3 2 3 3 3 5 2 2 7 5 9 2 4 6 0 15 13 29 28 33 29 26 22 20 18 16 14 12 11 11 10 10 10 10 9 8 7 6 6 6 7 5 4 5 4
17 13 3 1 3 4 3 4 7 2 9 8 5 4 3 6 4 4 3 21 16 28 32 31 32 28 25 22 20 18 15 14 14 14 14 14 13 13 12 12 11 9 8 7 8 8 6 7 6
15 4 3 2 3 6 3 8 3 5 9 4 3 3 4 3 4 3 6 26 18 26 33 30 33 31 27 24 21 19 17 16 15 15 15 15 15 16 16 15 15 13 12 10 11 11 10 9 8
7 4 2 4 11 7 5 4 2 10 3 3 2 6 3 6 2 5 12 26 21 24 31 30 33 32 29 25 23 20 18 17 15 15 16 16 17 18 17 18 18 15 14 13 14 13 13 12 11
2 2 4 4 8 7 8 13 6 6 4 5 4 4 4 3 10 6 15 25 24 25 32 28 34 33 30 27 24 22 19 17 16 15 15 17 18 17 18 18 18 19 17 16 16 15 15 16 13
3 0 4 8 11 9 8 10 4 6 3 2 5 4 5 1 6 10 16 27 24 27 34 29 34 34 31 26 24 22 19 17 16 15 15 17 17 16 16 16 18 19 19 18 17 18 19 18 16
4 3 5 7 9 8 6 3 5 5 2 3 1 3 4 5 8 11 18 26 24 25 30 30 29 34 30 27 24 22 20 18 17 16 14 15 15 14 14 14 15 16 16 16 16 18 18 17 17
2 3 4 6 6 7 5 3 5 2 2 2 3 3 6 3 4 12 15 19 20 25 26 30 28 26 26 23 25 22 20 19 18 17 17 17 16 15 14 14 14 14 15 16 17 18 18 17 17
3 5 11 8 7 7 3 5 2 4 7 5 7 7 7 7 4 9 12 16 19 20 24 25 25 24 24 22 20 22 20 18 17 17 18 16 15 14 14 14 16 14 13 14 15 16 17 17 17
9 9 13 10 10 8 2 5 7 6 12 19 10 9 8 7 8 14 20 24 25 25 27 27 27 25 22 20 21 17 15 14 14 14 14 14 16 15 15 15 16 14 13 13 13 14 14 13 15
9 18 24 18 11 7 12 13 8 14 18 20 14 19 19 14 13 18 24 31 34 28 24 26 28 27 25 20 20 17 16 15 15 16 17 15 16 16 15 14 13 12 12 11 12 13 13 13 11
14 16 24 24 14 11 15 11 13 16 26 25 19 17 19 17 13 18 24 30 30 28 26 26 28 29 27 23 20 18 16 14 13 15 18 18 17 18 17 16 14 13 11 11 11 12 11 12 14
15 20 20 19 20 18 19 21 20 24 25 26 21 19 17 16 18 22 28 28 26 26 22 27 28 29 27 24 20 18 16 13 12 15 16 17 17 19 18 17 16 15 13 12 11 11 10 11 12
12 21 23 21 19 22 22 25 12 20 22 27 23 22 22 19 19 19 21 30 27 24 23 27 29 29 26 24 21 18 14 12 14 14 15 17 17 17 18 17 17 16 15 13 11 11 10 11 11
11 14 15 14 18 17 16 18 18 23 23 20 21 22 22 20 20 18 27 28 31 22 20 25 28 28 27 25 20 16 13 13 15 16 16 18 18 19 17 16 16 16 17 16 11 11 9 10 9
9 6 14 12 16 10 10 21 18 21 15 19 21 19 19 19 18 23 27 25 20 21 23 27 27 29 28 24 19 14 13 14 15 15 15 15 16 17 15 16 15 14 12 13 11 11 9 10 10
8 12 16 12 11 12 13 17 13 13 13 17 21 21 21 22 20 23 22 20 21 24 26 27 27 29 28 21 16 13 13 14 14 14 13 13 12 12 13 14 13 11 11 11 10 10 10 10 10
18 11 10 13 10 9 15 18 17 20 15 19 20 19 18 17 22 18 13 15 19 24 29 31 27 28 23 16 13 11 12 12 12 12 11 10 9 10 12 12 12 11 11 10 9 10 11 10 10
18 20 22 17 7 8 16 17 20 20 16 18 19 18 19 18 17 9 3 10 17 19 24 29 28 25 20 15 9 8 9 9 9 9 10 9 9 10 11 10 9 11 11 10 10 10 12 9 10
23 23 23 14 12 7 16 20 18 18 19 17 20 20 19 17 11 1 3 10 16 20 25 28 24 24 19 14 10 6 6 6 6 7 8 8 9 7 9 9 9 9 9 9 11 13 10 5 12
29 29 24 19 4 8 10 22 19 14 13 16 17 17 16 14 10 6 8 12 16 21 25 24 22 21 16 13 9 6 5 5 4 4 4 5 5 3 6 7 8 8 9 10 13 12 11 9 11
26 24 23 17 8 12 3 17 19 18 20 16 16 13 9 5 3 7 10 13 19 24 23 22 21 18 14 12 8 6 4 3 2 2 3 4 3 4 5 6 5 7 10 11 13 12 9 11 13
22 15 17 15 12 12 17 10 18 5 18 23 18 13 6 0 4 9 11 17 21 24 22 20 18 15 13 11 7 4 4 3 1 2 4 4 3 6 6 6 5 8 10 12 12 11 7 6 11
12 12 12 7 9 13 17 13 25 13 18 14 14 11 1 4 7 9 13 20 23 22 20 19 17 14 12 10 6 5 5 3 1 2 2 3 4 6 6 6 6 8 10 12 13 11 8 7 8
23 14 8 9 9 11 11 12 19 9 13 16 17 10 2 5 9 12 16 17 22 21 20 18 16 14 12 9 5 5 4 2 1 2 2 1 2 4 6 6 8 9 10 11 12 11 7 6 6
27 23 10 14 13 9 13 11 9 17 23 22 16 11 6 9 10 13 18 18 21 21 20 17 15 14 12 8 5 5 3 1 1 1 1 1 1 2 4 6 7 8 10 12 11 9 7 6 6
23 22 17 10 1 4 5 7 13 15 14 12 16 11 8 11 13 16 17 20 21 20 19 17 15 13 11 7 6 4 3 1 1 2 2 1 2 1 4 7 7 7 9 11 12 10 8 9 9
20 22 12 11 13 9 4 7 9 9 14 10 10 11 9 12 14 16 17 19 20 20 18 15 14 13 12 8 6 4 3 1 2 3 3 3 2 4 6 8 8 8 9 10 9 9 9 9 9
11 22 8 10 7 7 4 6 8 16 15 15 13 10 13 15 16 17 17 20 20 19 18 15 13 12 11 8 6 4 3 3 3 5 4 4 3 5 6 10 10 10 11 10 10 9 10 9 9
22 17 22 11 9 10 5 6 1 9 3 3 6 9 13 14 16 17 18 20 19 19 18 16 14 12 10 9 6 4 4 4 5 5 4 5 5 6 7 9 9 10 12 12 10 11 10 10 9
Wind_Direction
159 145 143 148 211 275 249 229 257 250 243 181 135 188 208 210 188 296 209 185 175 180 182 191 194 194 197 200 204 209 217 224 233 236 237 240 246 248 245 241 232 248 263 278 285 275 266 258 236
159 144 142 149 231 227 219 218 217 293 318 287 216 198 218 249 226 271 197 177 175 183 187 189 197 197 199 204 207 212 220 228 232 237 240 242 244 241 243 246 244 243 245 260 270 273 269 260 245
153 167 220 215 203 220 219 207 227 311 310 247 253 244 183 223 216 228 189 172 176 187 190 197 197 199 202 205 209 214 222 229 235 238 239 240 245 246 242 245 246 251 251 252 257 262 263 261 256
167 188 127 237 235 242 236 203 298 325 9 180 259 263 248 232 204 206 177 176 183 187 191 197 198 202 205 206 210 216 223 229 236 240 242 243 244 244 246 247 241 251 250 251 254 251 263 253 253
158 183 228 248 251 257 248 268 256 282 275 302 194 255 259 246 224 208 181 183 187 188 194 199 200 204 208 211 212 216 223 230 236 244 244 244 247 248 252 257 249 252 249 249 254 256 257 258 256
149 263 222 243 246 252 262 251 224 242 239 292 188 257 257 276 217 199 189 192 193 193 195 199 202 208 210 213 215 219 225 231 234 240 244 247 251 252 253 258 256 257 254 252 252 252 256 258 257
197 183 254 261 265 269 245 187 193 180 349 58 334 250 283 289 239 207 198 196 198 200 197 201 202 208 212 215 218 221 227 235 236 240 246 250 250 251 253 256 258 259 261 261 260 262 263 261 257
217 217 237 240 255 269 197 190 160 39 5 92 189 253 305 335 275 211 205 201 200 202 203 203 202 202 205 209 218 222 230 238 242 245 243 245 245 249 255 262 265 264 264 264 261 261 261 259 257
159 235 244 239 215 246 207 223 67 342 289 280 244 246 280 286 254 198 204 212 206 205 205 205 202 203 204 204 210 220 231 238 246 249 248 248 246 247 249 254 262 267 266 266 264 261 263 262 259
202 223 238 236 238 259 280 309 324 287 297 286 264 260 268 281 249 220 207 216 212 209 206 205 204 204 205 204 209 210 220 231 241 243 242 242 243 245 247 255 262 262 266 260 261 264 268 267 252
207 231 236 262 254 269 281 280 294 292 290 281 296 305 308 286 251 234 232 222 220 215 207 207 206 207 204 204 207 213 225 240 246 251 249 242 242 247 244 250 258 255 259 252 256 259 261 258 262
215 230 245 253 269 280 275 300 273 274 268 279 290 283 288 287 267 238 237 231 223 220 208 205 205 207 205 207 211 216 230 238 246 253 252 244 246 245 241 247 251 247 253 255 254 254 255 259 253
216 228 240 250 268 265 274 270 268 284 280 279 281 282 270 269 268 254 243 240 231 230 213 204 204 203 202 206 209 219 230 233 246 250 249 243 240 239 239 243 245 244 246 251 253 253 256 252 249
214 229 243 252 262 270 267 268 278 265 274 278 284 275 275 270 265 265 243 235 228 221 213 204 201 200 200 204 209 224 231 239 248 251 249 247 242 243 244 245 240 243 241 245 246 247 248 243 239
243 238 241 239 246 255 271 271 256 265 268 277 273 275 276 270 270 248 247 235 227 221 202 208 199 198 198 200 212 223 235 244 251 253 256 251 250 252 247 244 244 243 242 241 242 242 243 232 230
208 206 229 229 232 244 215 269 277 270 276 280 281 278 278 276 270 264 253 239 225 203 198 202 196 191 191 199 210 225 240 249 252 255 254 251 256 255 249 249 246 246 234 224 232 235 231 225 222
214 231 218 236 228 245 214 274 257 271 284 285 281 281 279 282 283 264 256 233 206 192 199 191 188 180 186 198 208 226 244 250 252 250 247 252 255 251 245 245 245 232 216 221 229 231 227 220 215
219 228 236 233 228 224 239 254 274 281 286 279 282 284 280 272 270 288 253 215 192 189 197 188 175 175 182 190 204 227 247 250 247 242 245 252 252 258 251 242 230 221 221 223 224 221 214 215 208
253 234 238 234 228 245 251 268 278 286 288 282 282 280 274 269 281 308 258 192 179 178 170 166 166 174 173 180 190 221 234 241 246 247 249 255 262 265 245 236 223 218 221 224 219 213 195 193 176
229 234 237 248 259 247 279 280 280 284 283 284 283 277 269 276 284 292 163 173 174 167 166 157 162 169 174 184 193 202 221 248 253 260 259 259 280 265 225 212 216 213 212 204 196 188 179 171 177
224 229 237 244 256 245 289 281 276 280 284 291 280 262 273 274 272 186 160 167 160 160 157 156 160 166 173 180 182 198 243 255 257 251 249 271 279 238 196 203 215 219 201 197 189 191 189 168 179
230 227 240 240 234 255 240 285 278 290 287 285 283 275 274 263 163 159 155 153 158 158 155 153 158 165 170 175 180 207 236 237 220 261 277 279 257 215 205 215 220 208 190 188 187 194 192 169 166
233 222 216 228 247 274 257 276 274 226 282 280 281 280 305 201 154 161 156 154 159 152 154 155 158 162 167 174 190 210 205 189 221 261 282 278 254 221 213 208 215 188 189 190 185 189 185 172 177
207 197 164 185 235 245 251 241 279 257 252 265 264 266 10 86 124 137 143 148 154 152 152 157 159 161 168 177 193 195 168 160 265 291 284 288 239 216 209 208 198 184 189 188 186 189 190 191 194
195 197 185 211 209 240 230 217 249 251 245 252 265 275 162 141 145 145 151 157 154 155 158 161 162 164 173 180 181 160 156 167 292 312 294 333 211 191 197 198 183 189 191 185 187 183 179 192 191
191 190 215 217 225 234 203 230 260 231 238 237 245 272 159 158 155 159 158 159 158 161 163 164 162 166 176 174 164 154 162 191 332 352 84 96 164 158 180 173 176 182 181 177 175 174 166 169 167
201 212 214 238 119 220 194 240 268 248 245 232 227 223 195 168 160 162 161 162 164 168 167 165 167 171 170 169 156 162 171 160 77 84 102 108 45 115 150 154 162 163 171 168 167 168 156 164 155
185 178 189 213 212 218 211 237 237 223 230 217 214 204 173 160 159 164 169 165 171 171 167 169 171 169 171 162 156 164 166 151 97 99 82 81 82 107 142 154 155 147 151 152 158 156 149 154 144
181 189 195 199 223 209 230 231 217 228 213 221 217 191 168 167 168 167 171 169 173 169 170 174 168 170 169 158 159 159 151 128 120 111 88 85 103 113 142 162 156 147 145 144 146 142 141 145 143
198 195 194 197 183 218 232 231 49 241 257 225 169 158 160 164 164 169 169 168 174 174 176 177 174 176 171 162 162 166 140 123 118 125 94 90 110 110 131 155 155 147 141 145 145 139 138 145 150